Regional Weather Roundup
Issued by NWS

Home | Current Version | Previous Version | Text Only | Print | Product List | Glossary Off
Versions: 1 2 3 4 5 6 7 8 9 10 11 12 13 14 15 16 17 18 19 20 21 22 23 24 25 26 27

000
ASUS45 KPSR 271710
RWRAZ

ARIZONA HOURLY REGIONAL WEATHER ROUNDUP
NATIONAL WEATHER SERVICE PHOENIX AZ
1000 AM MST FRI MAY 27 2016

NOTE: FAIR INDICATES FEW OR NO CLOUDS BELOW 12,000 FEET WITH NO
SIGNIFICANT WEATHER AND/OR OBSTRUCTIONS TO VISIBILITY.

AZZ001>003-036-271800-
NORTHWEST ARIZONA

CITY           SKY/WX    TMP DP  RH WIND       PRES   REMARKS
KINGMAN        SUNNY     77  30  17 W14       29.95F
$$

AZZ004>008-015-016-018-271800-
NORTH CENTRAL ARIZONA

CITY           SKY/WX    TMP DP  RH WIND       PRES   REMARKS
GRAND CANYON   SUNNY     62  29  28 NW12G22   30.07F
WILLIAMS       MOSUNNY   61  28  29 NW12G18   30.16F
PRESCOTT       MOSUNNY   70  28  21 MISG      30.02F
FLAGSTAFF        N/A     59  27  29 NW8G20    30.08F
PAYSON         SUNNY     68  27  21 SW9G15    30.04F
PAGE           SUNNY     69  34  27 VRB7      29.95F
$$

AZZ009>014-017-271800-
NORTHEAST ARIZONA

CITY           SKY/WX    TMP DP  RH WIND       PRES   REMARKS
WINSLOW        SUNNY     70  30  22 NW10G21   30.00F
SAINT JOHNS    SUNNY     65  29  25 NW16G24   30.02S
WINDOW ROCK    MOSUNNY   62  27  26 NW10      30.03S
SHOW LOW       SUNNY     59  25  27 W6G18     30.07S
$$

AZZ023-271800-
GREATER PHOENIX AREA

CITY           SKY/WX    TMP DP  RH WIND       PRES   REMARKS
PHOENIX        SUNNY     82  36  19 VRB5      29.86F
BUCKEYE        SUNNY     77  41  27 S6        29.88F
GLENDALE       SUNNY     81  37  21 SW5       29.88F
LUKE AFB       SUNNY     80  35  19 CALM      29.85F
DEER VALLEY    SUNNY     78  36  21 SW5       29.87F
SCOTTSDALE     SUNNY     78  33  19 VRB3      29.89F
MESA-GATEWAY   SUNNY     79  34  19 CALM      29.89F
CHANDLER       SUNNY     79  34  19 CALM      29.88F
$$

AZZ027-028-271800-
SOUTHWEST MARICOPA COUNTY AND PINAL COUNTY

CITY           SKY/WX    TMP DP  RH WIND       PRES   REMARKS
CASA GRANDE    SUNNY     79  34  19 CALM      29.89F
GILA BEND      SUNNY     81  38  21 CALM      29.86F
$$

AZZ503-504-507>509-271800-
SOUTHEAST ARIZONA

CITY           SKY/WX    TMP DP  RH WIND       PRES   REMARKS
TUCSON         SUNNY     78  28  16 N8        29.95F
DAVIS-MONTHAN  MOSUNNY   75  28  17 VRB3      29.93F
RYAN FIELD     SUNNY     77  30  18 N3        29.94F
NOGALES        SUNNY     74  26  16 SW8       29.98F
SIERRA VISTA   SUNNY     68  24  18 VRB7      30.03F
DOUGLAS        SUNNY     70  24  17 NW7       30.00F
SAFFORD        SUNNY     76  29  17 W13       29.93F
$$

AZZ020-021-025-026-031-271800-
SOUTHWEST ARIZONA

CITY           SKY/WX    TMP DP  RH WIND       PRES   REMARKS
YUMA           SUNNY     82  48  30 CALM      29.84F
$$

CAZ031-033-041-043-047-048-061-271800-
SOUTHERN CALIFORNIA

CITY           SKY/WX    TMP DP  RH WIND       PRES   REMARKS
DOWNTOWN L.A.  CLOUDY    65  55  70 W3        29.94F
L.A. AIRPORT   CLOUDY    62  55  77 W5        29.95F
SAN DIEGO      PTSUNNY   64  55  72 NW5       29.96S
BURBANK        SUNNY     64  53  67 SE3       29.94F
ONTARIO        MOSUNNY   66  52  60 SW8       29.93F
RIVERSIDE      MOSUNNY   66  52  60 W7        29.93F
PALM SPRINGS   MOSUNNY   81  45  28 CALM      29.83F
EL CENTRO NAS  SUNNY     83  50  31 N5        29.84F
IMPERIAL       SUNNY     82  53  36 W7        29.83S
BLYTHE         SUNNY     83  47  28 VRB3      29.84F
NEEDLES        SUNNY     86  38  18 CALM      29.84F
$$

NVZ020-UTZ003-271800-
SOUTHERN NEVADA-UTAH

CITY           SKY/WX    TMP DP  RH WIND       PRES   REMARKS
LAS VEGAS      MOSUNNY   79  33  19 CALM      29.86F
SALT LAKE CITY MOSUNNY   67  40  37 N6        29.96F
$$

NMZ009-TXZ055-271800-
NEW MEXICO-WEST TEXAS

CITY           SKY/WX    TMP DP  RH WIND       PRES   REMARKS
ALBUQUERQUE    MOSUNNY   64  29  26 SW7       29.95F
EL PASO        SUNNY     75  24  15 W12       29.95S
$$


........................KEY........................
SKY/WX - SKY CONDITION/WEATHER
TMP    - TEMPERATURE IN FAHRENHEIT
DP     - DEW POINT IN FAHRENHEIT
RH     - RELATIVE HUMIDITY IN PERCENT
WIND   - DIRECTION AND SPEED IN MILES PER HOUR (MPH)
VRB    - VARIABLE WIND DIRECTION
PRES   - MEAN SEA LEVEL PRESSURE IN INCHES OF MERCURY
         F - FALLING PRESSURE   R - RISING PRESSURE
         S - STEADY PRESSURE
VSB    - VISIBILITY IN MILES
HX     - HEAT INDEX IN FAHRENHEIT
WCI    - WIND CHILL INDEX IN FAHRENHEIT
TC     - TEMPERATURE IN CELSIUS WHICH IS ALSO KNOWN AS
         TEMPERATURE IN CENTIGRADE
AFB    - AIR FORCE BASE
         LUKE AFB IS LUKE AIR FORCE BASE
         DAVIS-MONTHAN IS DAVIS-MONTHAN AIR FORCE BASE
NAS    - NAVAL AIR STATION
         EL CENTRO NAS IS EL CENTRO NAVAL AIR STATION
N/A    - NOT AVAILABLE





USA.gov is the U.S. government's official web portal to all federal, state and local government web resources and services.